User: anonymous   Login
Location: French Creek State Gamelands
(40.1750°N, 75.7969°W)
Time: 05:54:25
(UTC-05:00)
Language:

ISS - Orbit

View from above orbital plane
View from above orbital plane
View from above satellite
View from above satellite

Ground track
Ground track

The orbit data is extracted from the following two-line orbital elements,

1 25544U 98067A   16044.24069602  .00017376  00000-0  26363-3 0  9991
2 25544  51.6440 321.1219 0006821 111.4983 348.3704 15.54682446985540
Epoch (UTC): 13 February 2016 05:46:36
Eccentricity: 0.0006821
inclination: 51.6440°
perigee height: 398 km
apogee height: 408 km
right ascension of ascending node: 321.1219°
argument of perigee: 111.4983°
revolutions per day: 15.54682446
mean anomaly at epoch: 348.3704°
orbit number at epoch: 98554

The dashed part of the orbit path shows where the satellite is in the earth's shadow,  

DLR